Content
SEND FEEDBACK

Daily
Averages
Monthly
Summary
United States of America

LAURIE, MISSOURI


Home > North America > United States > Missouri
Elevation: 924 feet     Latitude: 38 25N     Longitude: 092 50W

WEATHER
 
SELECT A DAY
Number of Records: 464,668;   Date Range: 1/1/95 - 12/27/14
 
SHARE

PRINT THIS DATA

[ ← Previous Day ]
WEATHER ALMANAC - JANUARY 31, 2013
[ Next Day → ]
[ °C ]   °F
Weather ElementAverageHighLow
Temperature24.3 °F35.6 °F (12:15 pm)10.4 °F (11:15 pm)
Dewpoint12 °F21.2 °F (12:15 pm)-2.2 °F (11:15 pm)
Humidity60.2 %74 % (5:55 am)40 % (4:15 pm)
Barometer30.14 in30.46 in (10:55 pm)29.98 in (5:35 am)
Wind Speed8.5 mph16.1 mph (3:15 pm)
Wind Gust33.4 mph (3:35 pm)
Weather ElementAverage
Visibility9.7 mi
Wind DirectionWNW (290.9 °)

Weather ElementTotal
Precipitation---
Heating Degree Days42 (Base 65)
Averaged from 66 records on January 31, 2013
WEATHER CONDITIONS BREAKOUT
WIND DIRECTION BREAKOUT
WEATHER BY HOUR - JANUARY 31, 2013
[ °C ]   °F
Local TimeTemperatureDewpointHumidityBarometerVisibilityWind DirectionWind SpeedGust SpeedPrecipitationEventsConditions
12:35 AM26.6 °F15.8 °F64 %30.00 in10.0 miWest (270°)9.2 mph16.1 mphOvercast
12:55 AM26.6 °F17.6 °F69 %30.00 in10.0 miWest (260°)13.8 mph19.6 mphOvercast
1:15 AM26.6 °F15.8 °F64 %29.99 in10.0 miWest (270°)13.8 mph19.6 mphOvercast
1:35 AM26.6 °F15.8 °F64 %30.00 in10.0 miWest (280°)8.1 mph19.6 mphOvercast
1:55 AM26.6 °F14.0 °F59 %30.00 in10.0 miWNW (300°)6.9 mphOvercast
2:15 AM24.8 °F14.0 °F64 %30.00 in10.0 miWNW (300°)9.2 mphScattered Clouds
2:35 AM24.8 °F14.0 °F64 %30.01 in10.0 miWNW (300°)8.1 mph17.3 mphClear
2:55 AM24.8 °F14.0 °F64 %30.01 in10.0 miWNW (290°)5.8 mphClear
3:15 AM24.8 °F14.0 °F64 %30.00 in10.0 miWNW (290°)4.6 mphPartly Cloudy
3:35 AM24.8 °F15.8 °F69 %30.00 in10.0 miWest (270°)3.5 mphMostly Cloudy
3:55 AM24.8 °F15.8 °F69 %29.99 in10.0 miWNW (290°)4.6 mphOvercast
4:15 AM24.8 °F15.8 °F69 %29.99 in10.0 miWNW (290°)4.6 mphOvercast
4:35 AM24.8 °F15.8 °F69 %29.99 in10.0 miWest (260°)6.9 mphOvercast
4:55 AM24.8 °F15.8 °F69 %29.99 in10.0 miWSW (240°)6.9 mphOvercast
5:15 AM24.8 °F15.8 °F69 %29.99 in10.0 miWSW (240°)5.8 mphOvercast
5:35 AM24.8 °F15.8 °F69 %29.98 in10.0 miSSW (210°)5.8 mphOvercast
5:55 AM24.8 °F17.6 °F74 %29.99 in10.0 miWest (260°)5.8 mphOvercast
6:15 AM24.8 °F17.6 °F74 %29.99 in10.0 miSW (230°)4.6 mphOvercast
6:35 AM24.8 °F17.6 °F74 %30.00 in10.0 miSW (230°)5.8 mphOvercast
6:55 AM24.8 °F17.6 °F74 %30.00 in10.0 miWSW (240°)4.6 mphOvercast
7:15 AM26.6 °F17.6 °F69 %30.02 in10.0 miSW (230°)6.9 mphOvercast
7:35 AM26.6 °F17.6 °F69 %30.02 in10.0 miWSW (250°)6.9 mphOvercast
7:55 AM24.8 °F17.6 °F74 %30.03 in10.0 miWSW (240°)5.8 mphMostly Cloudy
8:15 AM26.6 °F17.6 °F69 %30.05 in10.0 miWest (280°)6.9 mphScattered Clouds
8:35 AM26.6 °F19.4 °F74 %30.06 in10.0 miWest (270°)4.6 mphClear
8:55 AM28.4 °F19.4 °F69 %30.06 in10.0 miWSW (250°)6.9 mphClear
9:15 AM28.4 °F19.4 °F69 %30.07 in10.0 miWest (260°)5.8 mphClear
9:35 AM30.2 °F17.6 °F60 %30.07 in10.0 miWest (270°)5.8 mphPartly Cloudy
9:55 AM30.2 °F17.6 °F60 %30.07 in10.0 miWest (270°)8.1 mphMostly Cloudy
10:15 AM32.0 °F19.4 °F60 %30.07 in10.0 miWest (260°)9.2 mphOvercast
10:35 AM33.8 °F19.4 °F56 %30.08 in10.0 miWest (280°)9.2 mph17.3 mphScattered Clouds
10:55 AM33.8 °F19.4 °F56 %30.08 in10.0 miNW (310°)6.9 mph16.1 mphPartly Cloudy
11:15 AM33.8 °F19.4 °F56 %30.09 in10.0 miWNW (300°)10.4 mphMostly Cloudy
11:35 AM33.8 °F19.4 °F56 %30.09 in10.0 miNW (310°)9.2 mphMostly Cloudy
11:55 AM33.8 °F19.4 °F56 %30.08 in10.0 miNW (320°)5.8 mph18.4 mphMostly Cloudy
12:15 PM35.6 °F21.2 °F56 %30.09 in10.0 miWNW (290°)10.4 mph19.6 mphOvercast
12:35 PM33.8 °F17.6 °F52 %30.09 in8.0 miWNW (300°)12.7 mphOvercast
12:55 PM32.0 °F17.6 °F55 %30.11 in10.0 miNW (310°)12.7 mph19.6 mphOvercast
1:15 PM30.2 °F17.6 °F60 %30.13 in5.0 miNW (310°)9.2 mphMostly Cloudy
1:35 PM28.4 °F19.4 °F69 %30.14 in2.0 miWNW (300°)11.5 mph18.4 mphOvercast
2:15 PM26.6 °F15.8 °F64 %30.16 in9.0 miWNW (300°)15.0 mph25.3 mphOvercast
2:35 PM26.6 °F15.8 °F64 %30.17 in10.0 miNW (320°)8.1 mphMostly Cloudy
2:55 PM26.6 °F15.8 °F64 %30.17 in9.0 miNW (310°)5.8 mph18.4 mphMostly Cloudy
3:15 PM26.6 °F12.2 °F55 %30.18 in10.0 miWNW (300°)16.1 mph25.3 mphMostly Cloudy
3:35 PM26.6 °F6.8 °F43 %30.21 in10.0 miNW (320°)12.7 mph33.4 mphOvercast
3:55 PM24.8 °F6.8 °F46 %30.22 in10.0 miNW (320°)12.7 mph19.6 mphPartly Cloudy
4:15 PM24.8 °F3.2 °F40 %30.22 in10.0 miNW (310°)16.1 mph26.5 mphClear
4:35 PM23.0 °F3.2 °F43 %30.23 in10.0 miWNW (300°)11.5 mph25.3 mphClear
4:55 PM23.0 °F3.2 °F43 %30.24 in10.0 miNW (310°)11.5 mph17.3 mphClear
5:15 PM21.2 °F3.2 °F46 %30.25 in10.0 miNNW (330°)9.2 mph19.6 mphClear
5:35 PM21.2 °F3.2 °F46 %30.26 in10.0 miNW (320°)10.4 mph16.1 mphClear
5:55 PM19.4 °F3.2 °F49 %30.27 in10.0 miNW (310°)8.1 mph16.1 mphClear
6:15 PM19.4 °F3.2 °F49 %30.29 in10.0 miNW (320°)10.4 mph18.4 mphClear
6:35 PM19.4 °F3.2 °F49 %30.30 in10.0 miNW (320°)13.8 mph18.4 mphClear
7:15 PM17.6 °F3.2 °F53 %30.34 in10.0 miNW (310°)6.9 mph19.6 mphPartly Cloudy
7:35 PM17.6 °F5.0 °F58 %30.34 in10.0 miNNW (340°)9.2 mph23.0 mphScattered Clouds
8:15 PM15.8 °F-0.4 °F49 %30.37 in10.0 miNNW (340°)10.4 mph18.4 mphPartly Cloudy
8:35 PM15.8 °F1.4 °F53 %30.38 in10.0 miNNW (330°)8.1 mph20.7 mphClear
9:15 PM12.2 °F-0.4 °F57 %30.40 in10.0 miNNW (330°)8.1 mph16.1 mphClear
9:35 PM12.2 °F-0.4 °F57 %30.42 in10.0 miNNW (340°)8.1 mphClear
10:15 PM12.2 °F-0.4 °F57 %30.44 in10.0 miNNW (330°)4.6 mphPartly Cloudy
10:35 PM12.2 °F1.4 °F62 %30.45 in10.0 miNW (310°)8.1 mph18.4 mphScattered Clouds
10:55 PM12.2 °F-0.4 °F57 %30.46 in10.0 miNW (320°)8.1 mph16.1 mphClear
11:15 PM10.4 °F-2.2 °F57 %30.45 in10.0 miWNW (300°)8.1 mphClear
11:35 PM10.4 °F-2.2 °F57 %30.46 in10.0 miNW (320°)6.9 mph16.1 mphClear
11:55 PM10.4 °F-2.2 °F57 %30.45 in10.0 miNW (310°)8.1 mphClear
Hourly data recorded from KAIZ, located miles away from Laurie, Missouri







STORIES FROM OUR PARTNERS